FW4250 Weather Reports


Display with metric or nautical units.
time (UTC)temp
F
wind
direction
speed
MPH
gust
MPH
rain 1hr
in
rain 24hr
in
rain mn
in
humidity
%
barometer
mb
20260906205544 74 176 1.0 4.0 0.00 0.08 0.08 70 987.5
20260906205041 74 175 2.0 5.0 0.00 0.08 0.08 71 987.5
20260906204546 73 171 2.0 5.0 0.00 0.08 0.08 69 987.5
20260906204038 73 169 0.0 6.0 0.00 0.08 0.08 69 987.6
20260906203539 72 169 2.0 6.0 0.00 0.08 0.08 68 987.6
20260906203039 72 171 1.0 5.0 0.00 0.08 0.08 71 987.5
20260906202535 72 210 1.0 4.0 0.00 0.08 0.08 72 987.4
20260906202034 71 210 0.0 4.0 0.00 0.08 0.08 73 987.6
20260906201542 71 210 0.0 0.0 0.00 0.08 0.08 74 987.6
20260906201032 70 210 0.0 0.0 0.00 0.08 0.08 74 987.7
20260906200532 70 210 0.0 0.0 0.00 0.08 0.08 78 987.9
20260906200030 69 210 0.0 0.0 0.00 0.08 0.08 79 987.9
20260906195533 69 210 0.0 0.0 0.00 0.08 0.08 78 988.0
20260906195033 68 210 0.0 0.0 0.00 0.08 0.08 82 988.0
20260906194526 68 210 0.0 2.0 0.00 0.08 0.08 81 988.3
20260906194025 68 210 0.0 2.0 0.00 0.08 0.08 83 988.3
20260906193524 68 210 0.0 2.0 0.00 0.08 0.08 86 988.3
20260906193024 67 210 0.0 3.0 0.00 0.08 0.08 85 988.6
20260906192524 67 210 0.0 4.0 0.00 0.08 0.08 85 988.7
20260906192026 67 202 1.0 6.0 0.01 0.08 0.08 85 988.6
20260906191523 66 196 2.0 6.0 0.01 0.08 0.08 85 988.8
20260906191025 66 90 1.0 3.0 0.02 0.08 0.08 85 988.9
20260906190525 66 82 1.0 4.0 0.02 0.08 0.08 85 988.5
20260906190023 66 82 1.0 6.0 0.02 0.08 0.08 86 988.6
20260906185522 66 80 0.0 6.0 0.02 0.08 0.08 87 988.6
20260906185024 66 63 0.0 3.0 0.02 0.08 0.08 87 988.7
20260906184520 66 62 1.0 3.0 0.02 0.08 0.08 87 988.4
20260906184020 66 130 0.0 0.0 0.02 0.08 0.08 87 988.5
20260906183519 66 171 0.0 0.0 0.02 0.08 0.08 85 989.2
20260906183030 66 171 0.0 0.0 0.02 0.08 0.08 84 989.5
20260906182518 67 171 0.0 0.0 0.02 0.08 0.08 84 989.7
20260906182018 67 171 0.0 0.0 0.01 0.07 0.07 83 989.9
20260906181534 67 171 0.0 0.0 0.01 0.07 0.07 82 990.1
20260906181018 67 171 0.0 1.0 0.00 0.06 0.06 81 990.2
20260906180520 68 171 0.0 1.0 0.00 0.06 0.06 81 990.6
20260906180026 68 171 0.0 7.0 0.00 0.06 0.06 78 990.9
20260906175520 68 171 2.0 7.0 0.00 0.06 0.06 77 990.8
20260906175015 69 186 1.0 7.0 0.00 0.06 0.06 75 990.6
20260906174516 69 186 3.0 7.0 0.00 0.06 0.06 72 990.7
20260906174015 69 208 3.0 6.0 0.00 0.06 0.06 72 990.6
20260906173514 69 172 2.0 5.0 0.00 0.06 0.06 72 990.3
20260906173013 68 178 2.0 6.0 0.00 0.06 0.06 72 990.2
20260906172512 68 183 3.0 6.0 0.00 0.06 0.06 73 990.1
20260906172011 68 168 3.0 7.0 0.00 0.06 0.06 75 990.0
20260906171509 67 178 3.0 6.0 0.00 0.06 0.06 76 989.7
20260906171008 65 188 3.0 5.0 0.00 0.06 0.06 81 989.8
20260906170508 65 189 1.0 2.0 0.00 0.06 0.06 83 989.7
20260906170010 64 189 0.0 2.0 0.00 0.06 0.06 87 989.7
20260906165508 64 189 0.0 4.0 0.01 0.06 0.06 89 989.7
20260906165010 64 189 0.0 5.0 0.02 0.06 0.06 89 989.7
20260906164509 63 189 0.0 4.0 0.03 0.06 0.06 90 989.7
20260906164007 63 189 0.0 3.0 0.03 0.06 0.06 89 989.7
20260906163506 64 189 1.0 5.0 0.03 0.06 0.06 88 989.7
20260906163006 63 197 2.0 9.0 0.03 0.06 0.06 88 989.8
20260906162510 63 202 2.0 9.0 0.03 0.06 0.06 89 989.6
20260906162006 62 177 5.0 8.0 0.04 0.06 0.06 89 989.4
20260906161504 62 137 2.0 4.0 0.05 0.06 0.06 90 989.0
20260906161002 62 229 0.0 3.0 0.06 0.06 0.06 91 988.7
20260906160503 62 229 0.0 3.0 0.06 0.06 0.06 91 988.7
20260906160104 61 229 1.0 3.0 0.06 0.06 0.06 91 988.5
20260906155603 62 229 0.0 1.0 0.05 0.05 0.05 92 988.1
20260906155100 62 229 0.0 2.0 0.04 0.04 0.04 91 987.9
20260906154559 61 229 0.0 2.0 0.03 0.03 0.03 89 987.7
20260906154057 61 229 1.0 3.0 0.03 0.03 0.03 88 987.3
20260906153556 62 229 1.0 3.0 0.03 0.03 0.03 87 987.3
20260906153109 62 229 1.0 3.0 0.03 0.03 0.03 87 987.3
20260906152554 63 229 0.0 1.0 0.03 0.03 0.03 86 987.2
20260906152053 64 229 0.0 1.0 0.02 0.02 0.02 84 987.4
20260906151553 65 229 0.0 0.0 0.01 0.01 0.01 81 987.6
20260906151050 66 228 0.0 0.0 0.00 0.00 0.00 68 987.6
20260906150550 65 228 0.0 0.0 0.00 0.00 0.00 68 987.6
20260906150049 65 228 0.0 0.0 0.00 0.00 0.00 68 987.6
20260906145551 65 228 0.0 0.0 0.00 0.00 0.00 67 987.6
20260906145048 65 228 0.0 0.0 0.00 0.00 0.00 68 987.5
20260906144549 65 228 0.0 0.0 0.00 0.00 0.00 68 987.4
20260906144044 65 228 0.0 0.0 0.00 0.00 0.00 68 987.3
20260906143544 65 228 0.0 0.0 0.00 0.00 0.00 67 987.3
20260906143044 65 228 0.0 0.0 0.00 0.00 0.00 67 987.2
20260906142542 65 228 0.0 0.0 0.00 0.00 0.00 66 987.3
20260906142042 64 228 0.0 0.0 0.00 0.00 0.00 64 987.1
20260906141555 64 229 0.0 3.0 0.00 0.00 0.00 65 987.0
20260906141041 64 229 0.0 4.0 0.00 0.00 0.00 66 987.2
20260906140539 64 229 1.0 4.0 0.00 0.00 0.00 66 987.2
20260906140040 65 229 2.0 4.0 0.00 0.00 0.00 65 987.1
20260906135538 65 234 0.0 5.0 0.00 0.00 0.00 62 986.9
20260906135037 65 234 2.0 5.0 0.00 0.00 0.00 64 986.9
20260906134536 64 229 2.0 4.0 0.00 0.00 0.00 68 987.1
20260906134035 64 204 0.0 0.0 0.00 0.00 0.00 68 987.2
20260906133535 64 204 0.0 0.0 0.00 0.00 0.00 69 987.1
20260906133041 64 204 0.0 0.0 0.00 0.00 0.00 69 987.1
20260906132534 64 204 0.0 0.0 0.00 0.00 0.00 68 986.9
20260906132033 64 204 0.0 0.0 0.00 0.00 0.00 68 986.9
20260906131543 64 204 0.0 0.0 0.00 0.00 0.00 69 986.9
20260906131033 64 204 0.0 1.0 0.00 0.00 0.00 69 986.9
20260906130534 64 204 0.0 2.0 0.00 0.00 0.00 70 986.8
20260906130040 64 204 1.0 3.0 0.00 0.00 0.00 70 986.8
20260906125533 64 204 1.0 3.0 0.00 0.00 0.00 70 986.9
20260906125036 64 204 1.0 3.0 0.00 0.00 0.00 69 986.4
20260906124533 63 204 1.0 3.0 0.00 0.00 0.00 72 986.5
20260906124032 63 204 0.0 0.0 0.00 0.00 0.00 72 986.4
20260906123532 63 204 0.0 0.0 0.00 0.00 0.00 72 986.4
20260906123036 63 204 0.0 0.0 0.00 0.00 0.00 72 986.4
20260906122532 63 204 0.0 0.0 0.00 0.00 0.00 73 986.5
20260906122032 63 204 0.0 0.0 0.00 0.00 0.00 73 986.4
20260906121537 64 204 0.0 0.0 0.00 0.00 0.00 73 986.4
20260906121031 64 204 0.0 0.0 0.00 0.00 0.00 71 986.4
20260906120533 64 204 0.0 0.0 0.00 0.00 0.00 71 986.5
20260906120031 63 204 0.0 0.0 0.00 0.00 0.00 69 986.5
20260906115531 63 204 0.0 0.0 0.00 0.00 0.00 69 986.6
20260906115030 63 204 0.0 0.0 0.00 0.00 0.00 69 986.6
20260906114532 63 204 0.0 0.0 0.00 0.00 0.00 69 986.6
20260906114029 63 204 0.0 0.0 0.00 0.00 0.00 68 986.7
20260906113529 63 204 0.0 0.0 0.00 0.00 0.00 70 986.7
20260906113030 63 204 0.0 0.0 0.00 0.00 0.00 70 986.8
20260906112529 63 204 0.0 0.0 0.00 0.00 0.00 70 986.8
20260906112029 63 204 0.0 0.0 0.00 0.00 0.00 71 986.7
20260906111534 63 204 0.0 0.0 0.00 0.00 0.00 71 986.7
20260906111029 63 204 0.0 0.0 0.00 0.00 0.00 72 986.6
20260906110529 63 204 0.0 0.0 0.00 0.00 0.00 73 986.7
20260906110028 63 204 0.0 0.0 0.00 0.00 0.00 73 986.7
20260906105528 63 204 0.0 0.0 0.00 0.00 0.00 75 986.6
20260906105029 63 204 0.0 0.0 0.00 0.00 0.00 76 986.6
20260906104532 63 204 0.0 0.0 0.00 0.00 0.00 75 986.8
20260906104027 63 204 0.0 0.0 0.00 0.00 0.00 75 986.7
20260906103528 63 204 0.0 0.0 0.00 0.00 0.00 74 986.6
20260906103027 63 204 0.0 0.0 0.00 0.00 0.00 73 986.7
20260906102528 63 204 0.0 0.0 0.00 0.00 0.00 74 986.7
20260906102027 63 204 0.0 0.0 0.00 0.00 0.00 73 986.5
20260906101533 63 204 0.0 0.0 0.00 0.00 0.00 71 986.6
20260906101026 63 204 0.0 0.0 0.00 0.00 0.00 71 986.6
20260906100532 63 204 0.0 0.0 0.00 0.00 0.00 70 986.4
20260906100032 63 204 0.0 0.0 0.00 0.00 0.00 69 986.4
20260906095529 63 204 0.0 0.0 0.00 0.00 0.00 68 986.5
20260906095026 63 204 0.0 0.0 0.00 0.00 0.00 69 986.5
20260906094524 63 204 0.0 0.0 0.00 0.00 0.00 70 986.5
20260906094024 63 204 0.0 0.0 0.00 0.00 0.00 70 986.5
20260906093524 63 204 0.0 0.0 0.00 0.00 0.00 71 986.6
20260906093023 64 204 0.0 0.0 0.00 0.00 0.00 72 986.6
20260906092523 64 204 0.0 0.0 0.00 0.00 0.00 73 986.7
20260906092024 64 204 0.0 0.0 0.00 0.00 0.00 73 986.7
20260906091526 63 204 0.0 0.0 0.00 0.00 0.00 72 986.7
20260906091022 63 204 0.0 0.0 0.00 0.00 0.00 74 986.7
20260906090523 63 204 0.0 0.0 0.00 0.00 0.00 74 986.8
20260906090021 63 204 0.0 0.0 0.00 0.00 0.00 74 986.8
20260906085521 63 204 0.0 0.0 0.00 0.00 0.00 74 986.9
20260906085020 63 204 0.0 0.0 0.00 0.00 0.00 74 986.9
20260906084521 63 204 0.0 0.0 0.00 0.00 0.00 75 986.9
20260906084021 63 204 0.0 0.0 0.00 0.00 0.00 76 987.0
20260906083519 63 204 0.0 0.0 0.00 0.00 0.00 75 987.1
20260906083022 63 204 0.0 0.0 0.00 0.00 0.00 75 987.0
20260906082518 63 204 0.0 0.0 0.00 0.00 0.00 74 987.2
20260906082018 63 204 0.0 1.0 0.00 0.00 0.00 74 987.1
20260906081521 63 204 0.0 1.0 0.00 0.00 0.00 73 987.2
20260906081021 63 204 0.0 0.0 0.00 0.00 0.00 70 987.2
20260906080517 63 204 0.0 0.0 0.00 0.00 0.00 71 987.3
20260906080022 63 204 0.0 1.0 0.00 0.00 0.00 71 987.2
20260906075516 63 204 0.0 2.0 0.00 0.00 0.00 71 987.2
20260906075015 63 204 1.0 3.0 0.00 0.00 0.00 69 987.1
20260906074514 63 204 1.0 3.0 0.00 0.00 0.00 70 987.2
20260906074013 63 204 0.0 2.0 0.00 0.00 0.00 71 987.2
20260906073511 64 204 0.0 3.0 0.00 0.00 0.00 71 987.2
20260906073013 64 204 0.0 3.0 0.00 0.00 0.00 72 987.2
20260906072511 64 204 2.0 3.0 0.00 0.00 0.00 72 987.1
20260906072012 64 204 0.0 0.0 0.00 0.00 0.00 73 987.1
20260906071519 64 204 0.0 0.0 0.00 0.00 0.00 73 987.1
20260906071010 64 204 0.0 0.0 0.00 0.00 0.00 72 987.1
20260906070510 64 204 0.0 0.0 0.00 0.00 0.00 72 987.1
20260906070009 64 204 0.0 1.0 0.00 0.00 0.00 72 987.0
20260906065508 64 204 0.0 2.0 0.00 0.00 0.00 70 987.0
20260906065008 65 204 0.0 2.0 0.00 0.00 0.00 69 987.1
20260906064508 65 204 0.0 2.0 0.00 0.00 0.00 69 987.0
20260906064008 65 204 0.0 2.0 0.00 0.00 0.00 67 987.0
20260906063507 65 204 0.0 2.0 0.00 0.00 0.00 68 987.0
20260906063007 66 204 1.0 2.0 0.00 0.00 0.00 67 987.0
20260906062509 66 204 0.0 0.0 0.00 0.00 0.00 66 987.0
20260906062007 66 204 0.0 0.0 0.00 0.00 0.00 65 987.0
20260906061506 66 204 0.0 0.0 0.00 0.00 0.00 66 987.0
20260906061006 66 204 0.0 0.0 0.00 0.00 0.00 66 987.0
20260906060507 66 204 0.0 0.0 0.00 0.00 0.00 66 986.9
20260906060006 67 204 0.0 0.0 0.00 0.00 0.00 67 986.9
20260906055506 67 204 0.0 0.0 0.00 0.00 0.00 68 987.0
20260906055009 67 204 0.0 0.0 0.00 0.00 0.00 69 986.9
20260906054506 66 204 0.0 0.0 0.00 0.00 0.00 66 986.9
20260906054006 67 204 0.0 0.0 0.00 0.00 0.00 64 987.0
20260906053507 67 204 0.0 0.0 0.00 0.00 0.00 67 987.1
20260906053007 67 204 0.0 2.0 0.00 0.00 0.00 65 987.2
20260906052506 67 204 0.0 2.0 0.00 0.00 0.00 62 987.1
20260906052006 67 204 0.0 1.0 0.00 0.00 0.00 62 987.2
20260906051508 68 204 0.0 1.0 0.00 0.00 0.00 61 987.1
20260906051005 68 204 0.0 0.0 0.00 0.00 0.00 64 987.1
20260906050508 68 204 0.0 0.0 0.00 0.00 0.00 62 987.2
20260906050005 68 204 0.0 0.0 0.00 0.00 0.00 60 987.2
20260906045504 69 204 0.0 0.0 0.00 0.00 0.00 60 987.1
20260906045006 69 204 0.0 2.0 0.00 0.00 0.00 59 987.1
20260906044507 69 204 0.0 2.0 0.00 0.00 0.00 59 987.2
20260906044005 69 204 1.0 3.0 0.00 0.00 0.00 57 987.2
20260906043505 69 204 1.0 3.0 0.00 0.00 0.00 56 987.2
20260906043003 69 204 0.0 2.0 0.00 0.00 0.00 58 987.2
20260906042503 69 204 0.0 0.0 0.00 0.00 0.00 59 987.2
20260906042003 70 204 0.0 1.0 0.00 0.00 0.00 69 987.2
20260906041503 70 204 0.0 1.0 0.00 0.00 0.00 69 987.1
20260906041003 70 204 0.0 0.0 0.00 0.00 0.00 67 987.0
20260906040502 70 204 0.0 0.0 0.00 0.00 0.00 70 987.0
20260906040105 70 204 0.0 0.0 0.00 0.00 0.00 70 986.9
20260906035504 71 204 0.0 0.0 0.00 0.00 0.00 69 986.9
20260906035002 71 204 0.0 0.0 0.00 0.00 0.00 68 986.9
20260906034501 71 204 0.0 0.0 0.00 0.00 0.00 68 986.9
20260906034003 71 204 0.0 0.0 0.00 0.00 0.00 68 986.9
20260906033501 72 204 0.0 0.0 0.00 0.00 0.00 68 986.8
20260906033001 72 204 0.0 0.0 0.00 0.00 0.00 68 986.7
20260906032501 72 204 0.0 0.0 0.00 0.00 0.00 67 986.6
20260906032001 72 204 0.0 1.0 0.00 0.00 0.00 65 986.6
20260906031500 72 204 0.0 2.0 0.00 0.00 0.00 66 986.5
20260906031001 72 204 1.0 2.0 0.00 0.00 0.00 67 986.5
20260906030601 73 204 0.0 2.0 0.00 0.00 0.00 67 986.4
20260906030503 73 204 0.0 2.0 0.00 0.00 0.00 67 986.5
20260906030101 73 204 0.0 2.0 0.00 0.00 0.00 66 986.4
20260906025600 73 204 0.0 2.0 0.00 0.00 0.00 65 986.3
20260906025100 74 204 0.0 2.0 0.00 0.00 0.00 63 986.3
20260906024611 74 204 0.0 3.0 0.00 0.00 0.00 59 986.2
20260906024501 74 204 0.0 3.0 0.00 0.00 0.00 59 986.2
20260906024059 74 204 1.0 3.0 0.00 0.00 0.00 56 986.2
20260906023559 75 204 1.0 2.0 0.00 0.00 0.00 52 986.3
20260906023100 76 204 0.0 0.0 0.00 0.00 0.00 54 986.2
20260906022559 76 204 0.0 0.0 0.00 0.00 0.00 55 986.2
20260906022059 76 204 0.0 0.0 0.00 0.00 0.00 53 986.2
20260906021602 77 204 0.0 2.0 0.00 0.00 0.00 52 986.2
20260906021102 77 204 0.0 2.0 0.00 0.00 0.00 52 986.0
20260906020600 78 204 0.0 2.0 0.00 0.00 0.00 54 986.0
20260906020059 78 204 0.0 2.0 0.00 0.00 0.00 53 986.0
20260906015603 78 204 0.0 2.0 0.00 0.00 0.00 53 986.0
20260906015059 79 204 1.0 3.0 0.00 0.00 0.00 53 986.1
20260906014557 79 204 1.0 3.0 0.00 0.00 0.00 50 986.1
20260906014100 79 204 1.0 3.0 0.00 0.00 0.00 51 986.2
20260906013557 79 204 1.0 4.0 0.00 0.00 0.00 51 986.2
20260906013057 79 204 2.0 5.0 0.00 0.00 0.00 50 986.3
20260906012556 80 204 2.0 6.0 0.00 0.00 0.00 49 986.4
20260906012056 80 196 3.0 7.0 0.00 0.00 0.00 47 986.3
20260906011556 80 189 4.0 7.0 0.00 0.00 0.00 46 986.4
20260906011056 81 196 4.0 7.0 0.00 0.00 0.00 44 986.4
20260906010556 81 179 4.0 8.0 0.00 0.00 0.00 42 986.3
20260906010139 81 203 4.0 8.0 0.00 0.00 0.00 41 986.3
20260906005555 82 203 5.0 8.0 0.00 0.00 0.00 39 986.3
20260906005059 82 198 3.0 8.0 0.00 0.00 0.00 42 986.3
20260906004614 83 205 4.0 8.0 0.00 0.00 0.00 40 986.2
20260906004054 83 192 3.0 8.0 0.00 0.00 0.00 40 986.1
20260906003555 83 222 5.0 7.0 0.00 0.00 0.00 39 986.0
20260906003057 83 190 4.0 7.0 0.00 0.00 0.00 38 986.0
20260906002554 83 199 4.0 8.0 0.00 0.00 0.00 38 986.0
20260906002056 84 176 4.0 8.0 0.00 0.00 0.00 39 986.0
20260906001603 84 184 4.0 9.0 0.00 0.00 0.00 38 985.9
20260906001054 84 180 5.0 9.0 0.00 0.00 0.00 38 985.9
20260906000555 85 165 5.0 7.0 0.00 0.00 0.00 38 985.9
20260906000054 85 197 4.0 7.0 0.00 0.00 0.00 37 986.0
20260905235554 85 171 5.0 8.0 0.00 0.00 0.00 37 986.0
20260905235054 85 205 4.0 8.0 0.00 0.00 0.00 38 986.0
20260905234552 84 176 5.0 9.0 0.00 0.00 0.00 37 986.0
20260905234052 85 204 6.0 10.0 0.00 0.00 0.00 36 986.0
20260905233552 85 202 5.0 10.0 0.00 0.00 0.00 35 986.0
20260905233052 86 193 5.0 10.0 0.00 0.00 0.00 37 986.0
20260905232551 86 190 4.0 9.0 0.00 0.00 0.00 37 985.9
20260905232054 86 196 5.0 9.0 0.00 0.00 0.00 38 986.0
20260905231555 86 210 4.0 8.0 0.00 0.00 0.00 37 986.1
20260905231050 87 173 4.0 10.0 0.00 0.00 0.00 37 986.0
20260905230550 87 195 3.0 7.0 0.00 0.00 0.00 35 986.0
20260905230050 86 188 3.0 9.0 0.00 0.00 0.00 35 986.2
20260905225548 87 157 4.0 10.0 0.00 0.00 0.00 35 986.2
20260905225048 86 212 3.0 9.0 0.00 0.00 0.00 36 986.3
20260905224548 87 206 5.0 9.0 0.00 0.00 0.00 36 986.3
20260905224052 87 178 5.0 8.0 0.00 0.00 0.00 35 986.3
20260905223546 86 227 4.0 10.0 0.00 0.00 0.00 37 986.3
20260905223053 86 193 5.0 10.0 0.00 0.00 0.00 37 986.4
20260905222546 87 188 6.0 9.0 0.00 0.00 0.00 38 986.4
20260905222045 87 216 4.0 9.0 0.00 0.00 0.00 38 986.5
20260905221547 87 167 5.0 9.0 0.00 0.00 0.00 37 986.6
20260905221045 87 180 4.0 8.0 0.00 0.00 0.00 36 986.5
20260905220544 87 173 4.0 10.0 0.00 0.00 0.00 37 986.6
20260905220044 87 187 3.0 10.0 0.00 0.00 0.00 36 986.6
20260905215544 86 200 4.0 10.0 0.00 0.00 0.00 40 986.6
20260905215043 86 196 5.0 8.0 0.00 0.00 0.00 40 986.6
20260905214546 86 180 5.0 9.0 0.00 0.00 0.00 39 986.6
20260905214042 86 182 5.0 9.0 0.00 0.00 0.00 41 986.5
20260905213540 86 169 5.0 11.0 0.00 0.00 0.00 43 986.7
20260905213041 86 182 5.0 8.0 0.00 0.00 0.00 45 986.7
20260905212544 86 181 4.0 12.0 0.00 0.00 0.00 45 986.9
20260905212039 86 145 6.0 12.0 0.00 0.00 0.00 44 986.9
20260905211543 86 219 4.0 11.0 0.00 0.00 0.00 46 986.9
20260905211040 86 159 5.0 11.0 0.00 0.00 0.00 45 987.0
20260905210540 86 162 6.0 10.0 0.00 0.00 0.00 44 987.1
20260905210052 86 221 5.0 12.0 0.00 0.00 0.00 46 987.0